This demonstration page uses our WeatherBlox Daily Observations layout. Learn more.

Left ArrowRight Arrow

44.8408, -93.29828

Hourly Observations for July 6, 2019

Temp ( °F °C ) Dew Point ( °F °C ) Humidity (%) Winds ( mph kmh ) Pressure ( in mb ) Visibility ( mi km ) Precip ( " mm )
12:53 am 00:53 Cloudy 70 21.1 63 17.2 79 79 NNE 10 17 30.06 1018 10 16 0.00 0.00
1:53 am 01:53 Cloudy 71 21.7 62 16.7 73 73 N 8 13 30.07 1018 10 16 0.00 0.00
2:53 am 02:53 Cloudy 70 21.1 61 16.1 73 73 NNE 10 17 30.07 1018 10 16 0.00 0.00
3:53 am 03:53 Cloudy 69 20.6 61 16.1 76 76 N 9 15 30.07 1018 10 16 0.00 0.00
4:53 am 04:53 Cloudy 69 20.6 60 15.6 73 73 N 8 13 30.10 1019 10 16 0.00 0.00
5:53 am 05:53 Cloudy 69 20.6 60 15.6 73 73 N 10 17 30.11 1020 10 16 0.00 0.00
6:53 am 06:53 Cloudy 69 20.6 60 15.6 73 73 N 9 15 30.12 1020 10 16 0.00 0.00
7:53 am 07:53 Mostly Cloudy 71 21.7 61 16.1 71 71 N 8 13 30.14 1021 10 16 0.00 0.00
8:53 am 08:53 Mostly Cloudy 72 22.2 62 16.7 71 71 NNE 6 9 30.15 1021 10 16 0.00 0.00
9:53 am 09:53 Partly Cloudy 75 23.9 62 16.7 64 64 NNE 6 9 30.15 1021 10 16 0.00 0.00
10:53 am 10:53 Partly Cloudy 76 24.4 61 16.1 60 60 ESE 5 7 30.15 1021 10 16 0.00 0.00
11:53 am 11:53 Partly Cloudy 79 26.1 61 16.1 54 54 SE 6 9 30.15 1021 10 16 0.00 0.00
12:53 pm 12:53 Partly Cloudy 80 26.7 61 16.1 52 52 NE 6 9 30.14 1021 10 16 0.00 0.00
1:53 pm 13:53 Mostly Cloudy 81 27.2 61 16.1 51 51 VRB 7 11 30.13 1020 10 16 0.00 0.00
2:53 pm 14:53 Mostly Cloudy 81 27.2 60 15.6 49 49 E 5 7 30.12 1020 10 16 0.00 0.00
3:53 pm 15:53 Cloudy 81 27.2 59 15 47 47 NE 5 7 30.11 1020 10 16 0.00 0.00
4:53 pm 16:53 Cloudy 82 27.8 60 15.6 47 47 NE 9 15 30.09 1019 10 16 0.00 0.00
5:53 pm 17:53 Cloudy 80 26.7 59 15 49 49 VRB 7 11 30.09 1019 10 16 0.00 0.00
6:53 pm 18:53 Mostly Cloudy 80 26.7 59 15 49 49 N 6 9 30.08 1019 10 16 0.00 0.00
7:53 pm 19:53 Mostly Cloudy 79 26.1 61 16.1 54 54 VRB 6 9 30.07 1018 10 16 0.00 0.00
8:53 pm 20:53 Mostly Cloudy 77 25 61 16.1 58 58 NNE 5 7 30.09 1019 10 16 0.00 0.00
9:53 pm 21:53 Mostly Cloudy 76 24.4 62 16.7 62 62 ENE 5 7 30.10 1019 10 16 0.00 0.00
10:53 pm 22:53 Partly Cloudy 75 23.9 61 16.1 62 62 NNE 7 11 30.11 1020 10 16 0.00 0.00
11:53 pm 23:53 Partly Cloudy 73 22.8 60 15.6 64 64 NE 6 9 30.11 1020 10 16 0.00 0.00

Powered by AerisWeather